User: anonymous   Login
Location: Unspecified
(0.0000°N, 0.0000°E)
Time: 02:16:11
(UTC+02:00)
Language:

Cosmos 1538 Rocket - Orbit

View from above orbital plane
View from above orbital plane
View from above satellite
View from above satellite

Ground track
Ground track

The orbit data is extracted from the following two-line orbital elements,

1 14760U 84019B   17175.28155003 +.00000048 +00000-0 +25443-4 0  9999
2 14760 074.0438 108.8376 0028465 324.8582 144.2555 14.35822933744388
Epoch (UTC): 24 June 2017 06:45:25
Eccentricity: 0.0028465
inclination: 74.0438°
perigee height: 752 km
apogee height: 792 km
right ascension of ascending node: 108.8376°
argument of perigee: 324.8582°
revolutions per day: 14.35822933
mean anomaly at epoch: 144.2555°
orbit number at epoch: 74438

The dashed part of the orbit path shows where the satellite is in the earth's shadow,  

DLR